Regional Weather Roundup
Issued by NWS

Home | Current Version | Previous Version | Graphics & Text | Print | Product List | Glossary On
Versions: 1 2 3 4 5 6 7 8 9 10 11 12 13 14 15 16 17 18 19 20 21 22 23 24 25 26 27 28 29 30 31 32 33 34 35 36 37 38 39 40 41 42 43 44 45 46 47 48 49 50
645
ASUS43 KLOT 240702
RWRIL

ILLINOIS REGIONAL WEATHER ROUNDUP
NATIONAL WEATHER SERVICE CHICAGO/ROMEOVILLE IL
200 AM CDT FRI MAR 24 2017

NOTE: "FAIR" INDICATES FEW OR NO CLOUDS BELOW 12,000 FEET WITH NO
SIGNIFICANT WEATHER AND/OR OBSTRUCTIONS TO VISIBILITY.

* THESE STATIONS ARE NOT UNDER NWS QUALITY CONTROL. THEY ALSO MAY NOT
  REPORT WEATHER SUCH AS PRECIPITATION OR FOG.

ILZ001-002-007-009-015-016-024-240800-
NORTHWEST ILLINOIS

CITY           SKY/WX    TMP DP  RH WIND       PRES   REMARKS
MOLINE         PTCLDY    53  43  68 S6        29.88S
STERLING*      CLOUDY    45  40  82 CALM      29.93R
SAVANNA*       MOCLDY    41  36  82 SE7       29.89F
$$

ILZ003-004-008-010-011-017-018-240800-
NORTH CENTRAL ILLINOIS

CITY           SKY/WX    TMP DP  RH WIND       PRES   REMARKS
ROCKFORD       CLOUDY    46  37  71 S12       29.95S
FREEPORT*      CLOUDY    42  36  79 SE7       29.92F
ROCHELLE*      PTCLDY    42  36  77 S8        29.94S
DE KALB*       CLOUDY    41  34  76 SE7       29.96R
$$

ILZ005-006-012>014-019>023-240800-
NORTHEAST ILLINOIS

CITY           SKY/WX    TMP DP  RH WIND       PRES   REMARKS
CHICAGO-OHARE  PTCLDY    44  34  67 S12       29.96F
CHICAGO-MIDWAY PTCLDY    48  34  58 S12G17    29.97F
AURORA         CLEAR     44  35  70 S12       29.96S
LANSING*       CLEAR     43  35  72 S6        29.99F
WAUKEGAN       CLEAR     47  36  65 S20       29.93F
DUPAGE AIRPORT CLEAR     46  38  73 S12       29.95F
WHEELING       CLEAR     46  35  65 S10       29.97F
MORRIS*        PTCLDY    46  37  71 S8        29.96F
NORTHERLY ISL    N/A     47  32  56 S6          N/A
$$

LMZ740>746-240800-
SOUTHERN LAKE MICHIGAN

STATION/POSITION SKY/WX   TEMP    WIND        PRES    VSBY  WAVE
                          AIR SEA DIR/SP/G                  HT/PER
                          (F)     (DEG/KT/KT) (MB)    (MI)  (FT/S)
HARRISON CRIB              48     170/ 16/ 17   N/A
BURNHAM HARBOR             46     170/  5/  7   N/A
CALUMET HARBOR             48     160/  5/  8 1014.8F
BURNS HARBOR               49     180/  9/ 15 1016.3F
MICHIGAN CITY              49     140/  8/ 10   N/A
$$

ILZ025>027-034>036-040-047-049-050-058-095>099-240800-
WEST-CENTRAL ILLINOIS

CITY           SKY/WX    TMP DP  RH WIND       PRES   REMARKS
QUINCY         CLOUDY    58  47  66 S9        29.89S
GALESBURG*     CLOUDY    49  43  79 S13       29.88F
MACOMB*        CLOUDY    49  44  83 S8        29.92F
PITTSFIELD*    CLOUDY    60  48  65 S13       29.92R
$$

ILZ028>032-037-038-041>044-048-051>054-059>061-240800-
CENTRAL ILLINOIS

CITY           SKY/WX    TMP DP  RH WIND       PRES   REMARKS
PONTIAC        PTCLDY    48  41  75 S15       29.96F
BLOOMINGTON    CLOUDY    46  39  76 S17       29.97S
DECATUR        CLOUDY    49  40  71 S15       29.98F
PEORIA         CLOUDY    46  41  82 S13       29.94F
SPRINGFIELD    CLOUDY    50  42  74 S14       29.96F
TAYLORVILLE    NOT AVBL
$$

ILZ033-039-045-046-055>057-062-063-240800-
EAST-CENTRAL ILLINOIS

CITY           SKY/WX    TMP DP  RH WIND       PRES   REMARKS
CHAMPAIGN      CLOUDY    50  39  66 S15       29.99F
RANTOUL*       CLOUDY    50  42  74 S10       29.99F
MATTOON        CLOUDY    50  42  74 S14       30.00F
PARIS*         PTCLDY    53  43  69 S16       30.03F
$$

ILZ079-100>102-240800-
SOUTHWEST ILLINOIS

CITY           SKY/WX    TMP DP  RH WIND       PRES   REMARKS
BELLEVILLE     CLEAR     51  45  81 SE8       29.96F
CAHOKIA*       CLEAR     53  42  66 S6        29.96F
SPARTA*        CLEAR     56  47  70 S10       30.01F
$$

ILZ064>066-069>071-074>076-080>082-084>086-088>090-092>094-240800-
SOUTH-CENTRAL ILLINOIS

CITY           SKY/WX    TMP DP  RH WIND       PRES   REMARKS
CARBONDALE     CLEAR     58  48  69 S10       30.03F
CAIRO*         CLEAR     63  50  63 SE12      30.06F
EFFINGHAM*     CLEAR     51  44  75 SE12      30.04F
MARION         CLEAR     63  48  59 S13       30.04F
MT. VERNON     CLEAR     51  44  77 S7        30.04F
CENTRALIA*     CLEAR     54  46  73 S14       30.01F
SALEM*         CLEAR     53  44  71 SE7       30.03F
$$

ILZ067-068-072-073-078-083-087-091-240800-
SOUTHEAST ILLINOIS

CITY           SKY/WX    TMP DP  RH WIND       PRES   REMARKS
LAWRENCEVILLE  CLEAR     52  43  71 S12       30.08F
FLORA*         CLEAR     52  45  76 S10       30.05F
FAIRFIELD*     CLEAR     52  45  75 SE6       30.04F
HARRISBURG*    CLEAR     50  46  86 SE7       30.07F
ROBINSON*      CLEAR     53  42  66 S14       30.07F
CARMI*         CLEAR     48  44  85 SE7       30.07F
$$

ABBREVIATIONS USED IN REMARKS
   TC - TEMPERATURE IN CELSIUS
  WCI - WIND CHILL INDEX
   HX - HEAT INDEX
  VSB - VISIBILITY
$$





USA.gov is the U.S. government's official web portal to all federal, state and local government web resources and services.